Time,TemperatureF,DewpointF,PressureIn,WindDirection,WindDirectionDegrees,WindSpeedMPH,WindSpeedGustMPH,Humidity,HourlyPrecipIn,Conditions,Clouds,dailyrainin,SoftwareType,DateUTC
2013-02-20 20:47:00,32.5,11.5,30.15,North,0,7.0,7.0,41,0.00,,,0.00,meteohub,2013-02-21 01:47:00,
2013-02-20 20:48:00,32.5,11.5,30.15,North,0,7.0,7.0,41,0.00,,,0.00,meteohub,2013-02-21 01:48:00,
2013-02-20 20:53:00,32.4,11.3,30.16,West,270,8.0,13.0,41,0.00,,,0.00,meteohub,2013-02-21 01:53:00,
2013-02-20 20:58:00,32.4,11.3,30.15,NE,45,6.0,15.0,41,0.00,,,0.00,meteohub,2013-02-21 01:58:00,
2013-02-20 21:03:00,32.4,11.3,30.15,NE,45,8.0,15.0,41,0.00,,,0.00,meteohub,2013-02-21 02:03:00,
2013-02-20 21:08:00,32.2,11.1,30.16,North,0,4.0,15.0,41,0.00,,,0.00,meteohub,2013-02-21 02:08:00,
2013-02-20 21:13:00,32.2,11.1,30.16,South,180,3.0,12.0,41,0.00,,,0.00,meteohub,2013-02-21 02:13:00,
2013-02-20 21:18:00,32.0,12.0,30.15,South,180,7.0,12.0,43,0.00,,,0.00,meteohub,2013-02-21 02:18:00,
2013-02-20 21:23:00,32.0,12.0,30.16,South,180,3.0,7.0,43,0.00,,,0.00,meteohub,2013-02-21 02:23:00,
2013-02-20 21:28:00,32.0,12.0,30.17,South,180,2.0,7.0,43,0.00,,,0.00,meteohub,2013-02-21 02:28:00,
2013-02-20 21:33:00,32.0,12.0,30.17,NE,45,1.0,7.0,43,0.00,,,0.00,meteohub,2013-02-21 02:33:00,
2013-02-20 21:39:00,31.5,12.0,30.17,South,180,2.0,7.0,44,0.00,,,0.00,meteohub,2013-02-21 02:39:00,
2013-02-20 21:44:00,31.5,12.0,30.17,East,90,2.0,5.0,44,0.00,,,0.00,meteohub,2013-02-21 02:44:00,
2013-02-20 21:49:00,31.5,12.0,30.17,NW,315,5.0,5.0,44,0.00,,,0.00,meteohub,2013-02-21 02:49:00,
2013-02-20 21:54:00,31.5,12.0,30.17,East,90,3.0,5.0,44,0.00,,,0.00,meteohub,2013-02-21 02:54:00,
2013-02-20 21:59:00,31.3,11.8,30.17,East,90,2.0,5.0,44,0.00,,,0.00,meteohub,2013-02-21 02:59:00,
2013-02-20 22:04:00,31.3,12.4,30.17,NW,315,4.0,5.0,45,0.00,,,0.00,meteohub,2013-02-21 03:04:00,
2013-02-20 22:09:00,31.5,12.6,30.17,South,180,3.0,4.0,45,0.00,,,0.00,meteohub,2013-02-21 03:09:00,
2013-02-20 22:14:00,31.5,12.6,30.17,SE,135,2.0,5.0,45,0.00,,,0.00,meteohub,2013-02-21 03:14:00,
2013-02-20 22:19:00,31.5,12.0,30.17,East,90,4.0,5.0,44,0.00,,,0.00,meteohub,2013-02-21 03:19:00,
2013-02-20 22:24:00,31.5,12.0,30.17,NE,45,5.0,6.0,44,0.00,,,0.00,meteohub,2013-02-21 03:24:00,
2013-02-20 22:29:00,31.6,12.2,30.17,South,180,4.0,6.0,44,0.00,,,0.00,meteohub,2013-02-21 03:29:00,
2013-02-20 22:34:00,31.6,12.2,30.17,NW,315,4.0,7.0,44,0.00,,,0.00,meteohub,2013-02-21 03:34:00,
2013-02-20 22:39:00,31.5,12.0,30.17,South,180,5.0,7.0,44,0.00,,,0.00,meteohub,2013-02-21 03:39:00,
2013-02-20 22:44:00,31.5,12.0,30.16,West,270,2.0,7.0,44,0.00,,,0.00,meteohub,2013-02-21 03:44:00,
2013-02-20 22:49:00,31.5,12.0,30.16,South,180,3.0,5.0,44,0.00,,,0.00,meteohub,2013-02-21 03:49:00,
2013-02-20 22:54:00,31.3,11.8,30.15,NW,315,4.0,5.0,44,0.00,,,0.00,meteohub,2013-02-21 03:54:00,